Flag for Switzerland Weather past 2 weeks in Solothurn, Solothurn, Switzerland

Now
73 °F

Mild.


Feels Like: 77 °F
Forecast: 46 / 68 °F
Wind: 5 mph from South

Location: Grenchen

Current Time: Aug 30, 2014 at 5:24:21 PM

Latest Report: Aug 30, 2014 at 4:00 PM


Visibility: N/A

Pressure: 30.04 "Hg

Humidity: 55%

Dew point: 56 °F

Location of SolothurnLocation

Historic Weather in Solothurn — Graph

°F

Solothurn temperature yesterday

Maximum temperature yesterday: 72 °F (at 2:00 PM)
Minimum temperature yesterday: 57 °F (at 2:00 AM)
Average temperature yesterday: 64 °F

Past Weeks' High & Low Weather Summary

 TemperatureHumidityPressure
High76 °F (Aug 28, 6:00 PM)100% (Aug 17, 6:00 AM)30.24 "Hg (Aug 17, 6:00 AM)
Low47 °F (Aug 17, 7:00 AM)41% (Aug 21, 3:00 PM)29.79 "Hg (Aug 26, 6:00 PM)
Average60 °F76%30.03 "Hg
* Reported Aug 15 4:00 PM — Aug 30 4:00 PM, Solothurn, Weather by CustomWeather, © 2014

Note: Actual official high and low records may vary slightly from our data, if they occured in-between our weather recording intervals... More about our weather records

Advertising

Solothurn weather history for previous 24 hours

 ConditionsComfort  
Time TempWeatherWind HumidityBarometerVisibility
4:00 PM
Aug 30
73 °FMild.5 mph55%30.04 "HgN/A
3:00 PM72 °FMild.5 mph55%30.06 "HgN/A
2:00 PM71 °FMild.2 mph56%30.08 "HgN/A
1:00 PM70 °FMild.3 mph57%30.10 "HgN/A
12:00 PM69 °FMild.5 mph66%30.11 "HgN/A
11:00 AM66 °FMild.2 mph79%30.13 "HgN/A
10:00 AM64 °FMild.2 mph89%30.14 "HgN/A
9:00 AM62 °FCool.2 mph93%30.13 "HgN/A
8:00 AM60 °FCool.2 mph96%30.13 "HgN/A
7:00 AM59 °FCool.1 mph96%30.13 "HgN/A
6:00 AM58 °FCool.3 mph96%30.13 "HgN/A
5:00 AM59 °FCool.2 mph95%30.13 "HgN/A
4:00 AM57 °FCool.2 mph96%30.14 "HgN/A
3:00 AM60 °FCool.1 mph94%30.13 "HgN/A
2:00 AM61 °FCool.2 mph91%30.12 "HgN/A
1:00 AM63 °FMild.1 mph82%30.12 "HgN/A
12:00 AM65 °FMild.2 mph74%30.10 "HgN/A
11:00 PM
Aug 29
65 °FMild.3 mph80%30.10 "HgN/A
9:00 PM66 °FMild.3 mph80%30.06 "HgN/A
8:00 PM68 °FMild.5 mph76%30.04 "HgN/A
7:00 PM69 °FMild.6 mph71%30.04 "HgN/A
6:00 PM70 °FMild.5 mph72%30.03 "HgN/A
5:00 PM72 °FMild.6 mph71%30.02 "HgN/A
Weather by CustomWeather, © 2014

See weather overviewHow to use our weather pages